Regional Weather Roundup
Issued by NWS

Home | Current Version | Previous Version | Text Only | Print | Product List | Glossary On
Versions: 1 2 3 4 5 6 7 8 9 10 11 12 13 14 15 16 17 18 19 20 21 22 23 24 25 26 27 28 29 30 31 32 33 34 35 36 37 38 39 40 41 42 43 44 45 46 47 48 49 50
000
ASUS43 KLSX 200007
RWRMO

WEATHER SUMMARY FOR MISSOURI
NATIONAL WEATHER SERVICE SPRINGFIELD MO
600 PM CST SUN NOV 19 2017

NOTE: "FAIR" INDICATES FEW OR NO CLOUDS BELOW 12,000 FEET WITH NO
       SIGNIFICANT WEATHER AND/OR OBSTRUCTIONS TO VISIBILITY.
       CURRENT SKY AND/OR WEATHER CONDITIONS ARE NOT AVAILABLE FOR
       CHILLICOTHE AND FARMINGTON.

MOZ001>031-035>038-043-044-053-054-200100-
...NORTHERN AND WESTERN MISSOURI...

CITY           SKY/WX    TMP DP  RH WIND       PRES   REMARKS
KANSAS CTY INT PTCLDY    37  28  70 S10       30.09F WCI  30
6HR MIN TEMP:  37; 6HR MAX TEMP:  52;

KANSAS C DTWN  CLEAR     47  28  47 S8        30.11S
6HR MIN TEMP:  46; 6HR MAX TEMP:  54;

LEE`S SUMMIT   CLEAR     46  29  51 S10       30.12F
6HR MIN TEMP:  44; 6HR MAX TEMP:  51;

ST JOSEPH      CLEAR     41  28  60 S8        30.07F
6HR MIN TEMP:  41; 6HR MAX TEMP:  53;

CHILLICOTHE      N/A     42  26  53 S5        30.12F
6HR MIN TEMP:  40; 6HR MAX TEMP:  49;

KIRKSVILLE     CLEAR     37  26  64 S8        30.11F
6HR MIN TEMP:  36; 6HR MAX TEMP:  45;


$$
MOZ066>068-077>081-088>096-101>105-200100-
...SOUTHWEST MISSOURI...

CITY           SKY/WX    TMP DP  RH WIND       PRES   REMARKS
SPRINGFIELD    CLEAR     39  28  64 CALM      30.18S
6HR MIN TEMP:  38; 6HR MAX TEMP:  50;

JOPLIN         CLEAR     43  30  60 S6        30.19S
6HR MIN TEMP:  43; 6HR MAX TEMP:  53;

BRANSON        PTCLDY    41  25  52 CALM      30.20F

$$
MOZ032>034-039>042-045>050-055>058-069>072-200100-
...CENTRAL MISSOURI...

CITY           SKY/WX    TMP DP  RH WIND       PRES   REMARKS
COLUMBIA       CLEAR     38  24  57 S6        30.17S
6HR MIN TEMP:  38; 6HR MAX TEMP:  46;

JEFFERSON CITY CLEAR     41  24  51 SE3       30.18F
6HR MIN TEMP:  39; 6HR MAX TEMP:  47;

ROLLA          CLEAR     29  22  75 CALM      30.19S
6HR MIN TEMP:  29; 6HR MAX TEMP:  45;

SEDALIA        CLEAR     41  28  60 S7        30.17F
6HR MIN TEMP:  41; 6HR MAX TEMP:  48;

WHITEMAN AFB   CLEAR     39  27  62 S7        30.11F
WARRENSBURG    CLEAR     41  28  60 SE6       30.15F
OSAGE BEACH    CLEAR     41  23  48 S3        30.19S

$$
MOZ051-052-059>065-200100-
...EAST CENTRAL MISSOURI...

CITY           SKY/WX    TMP DP  RH WIND       PRES   REMARKS
ST LOUIS INTL  CLEAR     36  23  59 CALM      30.20S
6HR MIN TEMP:  35; 6HR MAX TEMP:  43;

SPIRIT OF STL  CLEAR     33  23  66 CALM      30.19S
6HR MIN TEMP:  32; 6HR MAX TEMP:  44;

ST CHARLES     CLEAR     35  20  54 SW5       30.19S
6HR MIN TEMP:  35; 6HR MAX TEMP:  43;


$$
MOZ072>076-082>087-097>100-106>115-200100-
...SOUTH CENTRAL AND SOUTHEAST MISSOURI...

CITY           SKY/WX    TMP DP  RH WIND       PRES   REMARKS
CAPE GIRARDEAU CLEAR     35  24  64 CALM      30.22R
6HR MIN TEMP:  35; 6HR MAX TEMP:  46;

FARMINGTON     CLEAR     36  20  52 CALM      30.19F
6HR MIN TEMP:  36; 6HR MAX TEMP:  43;

POPLAR BLUFF   CLEAR     37  25  61 CALM      30.21S
6HR MIN TEMP:  37; 6HR MAX TEMP:  50;

WEST PLAINS    CLEAR     39  18  42 CALM      30.20S
6HR MIN TEMP:  38; 6HR MAX TEMP:  51;


$$


USA.gov is the U.S. government's official web portal to all federal, state and local government web resources and services.